[Date Prev][Date Next][Thread Prev][Thread Next] - [Date Index][Thread Index][Author Index]

2 Line ISS Keps 4-7



ISS
1 25544U 98067A   02097.20206392  .00054754  00000-0  66717-3 0  2710
2 25544  51.6374  49.6168 0002969   8.2232  82.2193 15.59950644192965


----
Via the sarex mailing list at AMSAT.ORG courtesy of AMSAT-NA.
To unsubscribe, send "unsubscribe sarex" to Majordomo@amsat.org



AMSAT Top AMSAT Home